Tracking 20628 objects as of 6-Apr-2020
HD Live streaming from Space Station
objects crossing your sky now

CLUSTER II-FM6

Track CLUSTER II-FM6 now!
CLUSTER II-FM6 is classified as:


NORAD ID: 26410
Int'l Code: 2000-041A
Perigee: 34,935.4 km
Apogee: 97,904.9 km
Inclination: 131.7 °
Period: 3,257.4 minutes
Semi major axis: 72791 km
RCS: 1.9953 m2 (large)
Launch date: July 16, 2000
Source: European Space Agency (ESA)
Launch site: TYURATAM MISSILE AND SPACE COMPLEX (TTMTR)
aabbcc
Your satellite tracking list
Your tracking list is empty




NASA's NSSDC Master Catalog

Two Line Element Set (TLE):
1 26410U 00041A   20096.98953815 +.00000179 +00000-0 +00000-0 0  9990
2 26410 131.7091 341.1027 4325351 181.3426 000.7515 00.44206360010276
Source of the keplerian elements: AFSPC